Whiting Fld NAS, FL

1:03 PM CDT on September 19, 2017 (GMT -0500)
Whiting Field Naval Air Station (North)

Weather History for KNSE - January, 2014

Change the Weather History Date:

Monday, January 27, 2014

  Actual Average Record
Temperature  
Mean Temperature 58 °F -  
Max Temperature 68 °F 59 °F 73 °F (1999)
Min Temperature 46 °F 41 °F 30 °F (2000)
Degree Days  
Heating Degree Days 7    
Growing Degree Days 8 (Base 50)    
Moisture  
Dew Point 52 °F    
Average Humidity 81    
Maximum Humidity 97    
Minimum Humidity 44    
Precipitation  
Precipitation 0.07 in - - ()
Sea Level Pressure  
Sea Level Pressure 29.93 in    
Wind  
Wind Speed 7 mph (SW)    
Max Wind Speed 16 mph    
Max Gust Speed 22 mph    
Visibility 8 miles    
Events Rain    
Averages and records for this station are not official NWS values.
T = Trace of Precipitation, MM = Missing Value Source: NWS Daily Summary

Daily Weather History Graph

Daily Weather History Graph

Search for Another Location

Airport or City:

Trip Planner

Search our weather history database for the weather conditions in past years. The results will help you decide how hot, cold, wet, or windy it might be!

Date:

Astronomy

Jan. 27, 2014 Rise Set
Actual Time 6:42 AM CST 5:19 PM CST
Civil Twilight 6:16 AM CST 5:45 PM CST
Nautical Twilight 5:47 AM CST 6:14 PM CST
Astronomical Twilight 5:19 AM CST 6:42 PM CST
Moon 3:20 AM CST (1/27) 2:08 PM CST (1/27)
Length of Visible Light 11h 28m
Length of Day
10h 37m
Waning Crescent, 14% of the Moon is Illuminated
Jan 27
Waning Crescent
Jan 30
New
Feb 6
First Quarter
Feb 14
Full
Feb 22
Last Quarter

Hourly Weather History & Observations

Time (CST) Temp. Dew Point Humidity Pressure Visibility Wind Dir Wind Speed Gust Speed Precip Events Conditions
12:56 AM 53.1 °F 50.0 °F 89% 29.90 in 8.0 mi South 5.8 mph - N/A   Overcast
1:56 AM 55.0 °F 51.1 °F 86% 29.88 in 8.0 mi South 9.2 mph - 0.00 in Rain Light Rain
2:56 AM 55.0 °F 51.1 °F 86% 29.88 in 8.0 mi South 6.9 mph - 0.00 in   Mostly Cloudy
3:56 AM 55.0 °F 52.0 °F 89% 29.89 in 7.0 mi SSW 3.5 mph - N/A   Overcast
4:56 AM 54.0 °F 51.1 °F 90% 29.88 in 5.0 mi SSE 5.8 mph - N/A   Mostly Cloudy
5:56 AM 55.9 °F 52.0 °F 87% 29.89 in 7.0 mi South 4.6 mph - N/A   Mostly Cloudy
6:56 AM 55.9 °F 53.1 °F 90% 29.89 in 7.0 mi SSE 4.6 mph - N/A   Mostly Cloudy
7:56 AM 59.0 °F 55.9 °F 90% 29.91 in 7.0 mi South 5.8 mph - N/A   Mostly Cloudy
8:29 AM 61.0 °F 55.9 °F 83% 29.94 in 10.0 mi South 6.9 mph - 0.00 in Rain Light Rain
8:40 AM 61.0 °F 55.9 °F 83% 29.95 in 10.0 mi South 5.8 mph - 0.00 in   Mostly Cloudy
8:56 AM 63.0 °F 55.9 °F 78% 29.91 in 10.0 mi South 8.1 mph - 0.00 in   Mostly Cloudy
9:03 AM 63.0 °F 55.9 °F 78% 29.95 in 10.0 mi SSW 9.2 mph - 0.00 in Rain Light Rain
9:16 AM 63.0 °F 55.9 °F 78% 29.95 in 10.0 mi South 10.4 mph - 0.00 in   Mostly Cloudy
9:56 AM 68.0 °F 57.0 °F 68% 29.92 in 10.0 mi SSW 10.4 mph - 0.00 in   Mostly Cloudy
10:31 AM 64.0 °F 57.9 °F 80% 29.96 in 6.0 mi SW 12.7 mph - 0.00 in Rain Light Rain
10:56 AM 63.0 °F 57.9 °F 84% 29.92 in 3.0 mi SSW 10.4 mph - 0.00 in Rain Light Rain
11:31 AM 63.0 °F 62.1 °F 97% 29.94 in 9.0 mi South 10.4 mph - 0.01 in   Overcast
11:49 AM 61.0 °F 59.0 °F 93% 29.94 in 7.0 mi North 9.2 mph - 0.01 in Rain Light Rain
11:56 AM 59.0 °F 57.0 °F 93% 29.91 in 2.0 mi NNW 9.2 mph - 0.04 in Rain Rain
12:44 PM 60.1 °F 57.9 °F 93% 29.93 in 4.0 mi North 6.9 mph - 0.03 in Rain Light Rain
12:56 PM 60.1 °F 57.9 °F 93% 29.88 in 5.0 mi North 4.6 mph - 0.03 in   Overcast
1:56 PM 64.0 °F 60.1 °F 87% 29.87 in 9.0 mi NE 4.6 mph - N/A   Mostly Cloudy
2:56 PM 63.0 °F 55.9 °F 78% 29.88 in 9.0 mi NNW 3.5 mph - N/A   Mostly Cloudy
3:56 PM 61.0 °F 55.0 °F 81% 29.89 in 8.0 mi North 13.8 mph - N/A   Mostly Cloudy
4:56 PM 60.1 °F 53.1 °F 78% 29.91 in 8.0 mi Variable 3.5 mph - N/A   Overcast
5:56 PM 57.9 °F 52.0 °F 81% 29.93 in 9.0 mi North 9.2 mph - N/A   Overcast
6:56 PM 57.0 °F 51.1 °F 81% 29.96 in 9.0 mi North 8.1 mph - N/A   Overcast
7:56 PM 54.0 °F 50.0 °F 86% 29.98 in 8.0 mi NW 3.5 mph - N/A   Mostly Cloudy
8:56 PM 53.1 °F 39.0 °F 59% 29.98 in 10.0 mi North 10.4 mph 16.1 mph N/A   Overcast
9:56 PM 51.1 °F 35.1 °F 54% 30.01 in 10.0 mi North 16.1 mph 21.9 mph N/A   Overcast
10:56 PM 48.9 °F 30.0 °F 48% 30.03 in 10.0 mi North 10.4 mph 17.3 mph N/A   Overcast
11:56 PM 46.9 °F 26.1 °F 44% 30.04 in 10.0 mi North 6.9 mph 17.3 mph N/A   Overcast